This demonstration page uses our WeatherBlox Daily Observations layout. Learn more.

38.88101, -77.10428

Hourly Observations for August 21, 2016

Temp ( °F °C ) Dew Point ( °F °C ) Humidity (%) Winds ( mph kmh ) Pressure ( in mb ) Visibility ( mi km ) Precip ( " mm )
12:52 am 00:52 Mostly Cloudy 78 25.6 69 20.6 74 74 S 8 13 29.85 1011 10 16.09344 0 0
1:52 am 01:52 Mostly Cloudy 78 25.6 70 21.1 76 76 SE 8 13 29.85 1011 10 16.09344 0 0
2:52 am 02:52 Mostly Cloudy 77 25 72 22.2 85 85 S 10 17 29.85 1011 10 16.09344 0 0
3:52 am 03:52 Cloudy 77 25 72 22.2 85 85 S 9 15 29.83 1010 10 16.09344 0 0
4:52 am 04:52 Partly Cloudy 77 25 73 22.8 88 88 S 10 17 29.83 1010 10 16.09344 0 0
5:52 am 05:52 Mostly Cloudy 76 24.4 72 22.2 88 88 S 9 15 29.83 1010 10 16.09344 0 0
6:52 am 06:52 Mostly Cloudy 76 24.4 72 22.2 88 88 SSE 7 11 29.83 1010 10 16.09344 0 0
7:52 am 07:52 Mostly Cloudy 78 25.6 72 22.2 82 82 SSE 10 17 29.83 1010 10 16.09344 0 0
8:52 am 08:52 Mostly Cloudy 79 26.1 74 23.3 85 85 S 9 15 29.83 1010 10 16.09344 0 0
9:52 am 09:52 Cloudy 80 26.7 74 23.3 82 82 S 12 19 29.83 1010 10 16.09344 0.001 0.001
10:47 am 10:47 Mostly Cloudy 81 27 75 24 84 84 S 13 20 29.83 1010 10 16.09344 0 0
10:52 am 10:52 Mostly Cloudy 82 27.8 75 23.9 79 79 S 13 20 29.83 1010 10 16.09344 0 0
11:48 am 11:48 Mostly Cloudy 84 29 75 24 74 74 S 13 20 29.83 1010 10 16.09344 0 0
11:52 am 11:52 Mostly Cloudy 84 28.9 76 24.4 77 77 S 13 20 29.83 1010 10 16.09344 0 0
12:52 pm 12:52 Mostly Cloudy 88 31.1 74 23.3 63 63 SSW 15 24 29.8 1009 10 16.09344 0 0
12:59 pm 12:59 Mostly Cloudy 90 32.2 75 23.9 62 62 SSW 17 28 29.8 1009 10 16.09344 0 0
1:52 pm 13:52 Mostly Cloudy 89 31.7 74 23.3 61 61 SW 15 24 29.77 1008 10 16.09344 0 0
2:22 pm 14:22 Mostly Cloudy with Light Rain 84 29 75 24 74 74 N 3 6 29.77 1008 4 6.437376 0 0
2:52 pm 14:52 Mostly Cloudy 88 31.1 74 23.3 63 63 SSW 14 22 29.74 1007 10 16.09344 0.03 0.762
3:12 pm 15:12 Mostly Cloudy with Light Rain 88 31 73 23 62 62 W 21 33 29.77 1008 10 16.09344 0 0
3:16 pm 15:16 Mostly Cloudy with Light Rain 82 28 73 23 74 74 WNW 21 33 29.77 1008 3 4.828032 0 0
3:18 pm 15:18 Mostly Cloudy with Rain 81 27 73 23 79 79 WNW 20 31 29.77 1008 1.5 2.414016 0 0
3:21 pm 15:21 Mostly Cloudy with Heavy Rain 79 26.1 74 23.3 85 85 W 24 39 29.77 1008 0.75 1.207008 0.12 3.048
3:25 pm 15:25 Cloudy with Heavy Rain 78 25.6 74 23.3 87 87 WNW 18 30 29.77 1008 0.5 0.804672 0.24 6.096
3:30 pm 15:30 Mostly Cloudy with Heavy Rain 77 25 73 23 89 89 NNW 15 24 29.77 1008 0.5 0.804672 0 0
3:35 pm 15:35 Cloudy with Heavy Rain 78 25.6 75 23.9 90 90 NW 16 26 29.77 1008 1 1.609344 0.44 11.176
3:39 pm 15:39 Cloudy with Light Rain 78 25.6 74 23.3 87 87 NW 14 22 29.77 1008 3 4.828032 0.45 11.43
3:45 pm 15:45 Cloudy with Light Thunderstorms 78 25.6 74 23.3 87 87 NNW 16 26 29.77 1008 8 12.874752 0.45 11.43
3:47 pm 15:47 Cloudy with Light Thunderstorms 79 26 73 23 84 84 NNW 14 22 29.77 1008 7 11.265408 0.45 11.43
3:52 pm 15:52 Cloudy with Thunderstorms 77 25 75 23.9 94 94 NNW 14 22 29.77 1008 6 9.656064 0.45 11.43
4:01 pm 16:01 Mostly Cloudy with Light Thunderstorms 77 25 74 23.3 90 90 NW 8 13 29.77 1008 10 16.09344 0.001 0.001
4:18 pm 16:18 Mostly Cloudy with Light Rain 77 25 72 22 83 83 W 6 9 29.77 1008 5 8.04672 0 0
4:52 pm 16:52 Mostly Cloudy with Light Rain 77 25 74 23.3 90 90 WSW 3 6 29.77 1008 9 14.484096 0.07 1.778
5:52 pm 17:52 Mostly Cloudy 79 26.1 75 23.9 88 88 SSE 6 9 29.8 1009 10 16.09344 0.001 0.001
6:52 pm 18:52 Mostly Cloudy 78 25.6 74 23.3 87 87 SSW 7 11 29.8 1009 10 16.09344 0 0
7:02 pm 19:02 Cloudy with Light Rain 79 26 75 24 89 89 SSW 8 13 29.8 1009 2.5 4.02336 0 0
7:05 pm 19:05 Cloudy with Heavy Rain 78 25.6 75 23.9 90 90 S 9 15 29.8 1009 1.75 2.816352 0.05 1.27
7:10 pm 19:10 Cloudy with Light Rain 77 25 75 24 94 94 S 7 11 29.8 1009 2.5 4.02336 0 0
7:12 pm 19:12 Cloudy with Light Rain 77 25 75 24 94 94 S 6 9 29.8 1009 4 6.437376 0 0
7:16 pm 19:16 Cloudy 77 25 75 24 94 94 N 3 6 29.8 1009 10 16.09344 0 0
7:35 pm 19:35 Cloudy with Light Rain 78 25.6 75 23.9 90 90 W 8 13 29.83 1010 7 11.265408 0.06 1.524
7:43 pm 19:43 Cloudy with Heavy Rain 78 25.6 74 23.3 87 87 W 9 15 29.8 1009 2 3.218688 0.09 2.286
7:45 pm 19:45 Cloudy with Heavy Rain 77 25 74 23.3 90 90 SW 7 11 29.83 1010 1.75 2.816352 0.11 2.794
7:49 pm 19:49 Cloudy with Light Rain 77 25 73 23 89 89 SW 7 11 29.83 1010 2 3.218688 0.14 3.556
7:52 pm 19:52 Cloudy with Light Rain 78 25.6 73 22.8 85 85 N 5 7 29.83 1010 3 4.828032 0.14 3.556
7:58 pm 19:58 Mostly Cloudy 79 26 73 23 84 84 W 5 7 29.83 1010 10 16.09344 0 0
8:52 pm 20:52 Cloudy 78 25.6 73 22.8 85 85 W 7 11 29.85 1011 10 16.09344 0.001 0.001
9:52 pm 21:52 Cloudy 79 26.1 68 20 69 69 WNW 9 15 29.88 1012 10 16.09344 0 0
10:52 pm 22:52 Mostly Clear 77 25 66 18.9 69 69 NW 10 17 29.88 1012 10 16.09344 0 0
11:52 pm 23:52 Mostly Clear 76 24.4 62 16.7 62 62 NW 12 19 29.91 1013 10 16.09344 0 0

Powered by AerisWeather